Weather History for LIED - September, 2012

Change the Weather History Date:

Monday, September 17, 2012

  Actual Average Record
Temperature  
Mean Temperature 70 °F -  
Max Temperature 84 °F 78 °F 93 °F (2000)
Min Temperature 56 °F 58 °F 51 °F (1996)
Cooling Degree Days 5    
Growing Degree Days 20 (Base 50)    
Moisture  
Dew Point 56 °F    
Average Humidity 63    
Maximum Humidity 83    
Minimum Humidity 23    
Precipitation  
Precipitation 0.00 in 0.06 in - ()
Sea Level Pressure  
Sea Level Pressure 29.97 in    
Wind  
Wind Speed 4 mph ()    
Max Wind Speed 14 mph    
Max Gust Speed -    
Visibility 7.8 miles    
Events      
Averages and records for this station are not official NWS values.
T = Trace of Precipitation, MM = Missing Value Source: Averaged Metar Reports

Daily Weather History Graph

Daily Weather History Graph

Search for Another Location

Airport or City:

Trip Planner

Search our weather history database for the weather conditions in past years. The results will help you decide how hot, cold, wet, or windy it might be!

Date:

Astronomy

Sep. 17, 2012 Rise Set
Actual Time 7:07 AM CEST 7:28 PM CEST
Civil Twilight 6:40 AM CEST 7:55 PM CEST
Nautical Twilight 6:08 AM CEST 8:27 PM CEST
Astronomical Twilight 5:36 AM CEST 8:59 PM CEST
Moon 8:36 AM CEST (9/17) 8:01 PM CEST (9/17)
Length of Visible Light 13h 15m
Length of Day
12h 21m
New Moon, 2% of the Moon is Illuminated
Sep 17
New Moon
Sep 22
First Quarter
Sep 30
Full
Oct 8
Last Quarter
Oct 15
New

Hourly Weather History & Observations

Time (CEST) Temp. Heat Index Dew Point Humidity Pressure Visibility Wind Dir Wind Speed Gust Speed Precip Events Conditions
12:55 AM 64.4 °F - 59.0 °F 83% 29.98 in - Calm Calm - N/A   Clear
1:55 AM 64.4 °F - 59.0 °F 83% 29.95 in - NNW 4.6 mph - N/A   Clear
2:00 AM 64 °F - 58 °F 75% 29.97 in 6 mi NNW 4.6 mph - -  
2:55 AM 62.6 °F - 57.2 °F 82% 29.95 in - Calm Calm - N/A   Clear
3:55 AM 60.8 °F - 55.4 °F 82% 29.95 in - NNE 4.6 mph - N/A   Clear
5:00 AM 61 °F - 54 °F 72% 29.97 in 6 mi NNE 3.5 mph - -  
5:55 AM 57.2 °F - 51.8 °F 82% 29.95 in - WNW 3.5 mph - N/A   Clear
6:55 AM 57.2 °F - 50.0 °F 77% 29.95 in - NNW 3.5 mph - N/A   Clear
7:55 AM 57.2 °F - 50.0 °F 77% 29.98 in - NW 3.5 mph - N/A   Clear
8:00 AM 57 °F - 50 °F 72% 29.98 in 12 mi NW 3.5 mph - -   Clear
8:55 AM 60.8 °F - 53.6 °F 77% 29.98 in - NNW 2.3 mph - N/A   Clear
9:55 AM 69.8 °F - 57.2 °F 64% 29.98 in 6.2 mi NW 2.3 mph - N/A   Partly Cloudy
10:55 AM 75.2 °F - 55.4 °F 50% 29.98 in 6.2 mi West 2.3 mph - N/A   Partly Cloudy
11:00 AM 74 °F - 55 °F 40% 29.98 in 12 mi West 2.3 mph - -   Scattered Clouds
11:55 AM 78.8 °F - 51.8 °F 39% 29.98 in 6.2 mi West 2.3 mph - N/A   Partly Cloudy
12:55 PM 82.4 °F - 51.8 °F 35% 29.98 in 6.2 mi South 4.6 mph - N/A   Partly Cloudy
1:55 PM 82.4 °F - 50.0 °F 32% 29.95 in 6.2 mi SSE 9.2 mph - N/A   Partly Cloudy
2:00 PM 82 °F - 50 °F 23% 29.96 in 12 mi SSE 9.2 mph - -   Scattered Clouds
2:55 PM 80.6 °F 80.5 °F 55.4 °F 42% 29.95 in 6.2 mi SSE 12.7 mph - N/A   Partly Cloudy
3:55 PM 80.6 °F 80.8 °F 57.2 °F 45% 29.95 in 6.2 mi SSE 13.8 mph - N/A   Partly Cloudy
4:55 PM 80.6 °F 80.8 °F 57.2 °F 45% 29.95 in 6.2 mi SSE 13.8 mph - N/A   Partly Cloudy
5:55 PM 77.0 °F - 57.2 °F 50% 29.95 in 6.2 mi SSE 8.1 mph - N/A   Partly Cloudy
6:55 PM 75.2 °F - 62.6 °F 65% 29.95 in - ESE 6.9 mph - N/A   Clear
7:55 PM 73.4 °F - 62.6 °F 69% 29.98 in - East 2.3 mph - N/A   Clear
8:00 PM 73 °F - 62 °F 60% 29.98 in 12 mi East 2.3 mph - -   Partly Cloudy
8:55 PM 71.6 °F - 60.8 °F 69% 29.98 in - NNW 2.3 mph - N/A   Clear
9:55 PM 69.8 °F - 59.0 °F 68% 29.98 in - NNE 4.6 mph - N/A   Clear
10:55 PM 68.0 °F - 60.8 °F 78% 29.98 in 6.2 mi NNE 3.5 mph - N/A   Partly Cloudy
11:00 PM 68 °F - 61 °F 71% 30.00 in 12 mi NNE 3.5 mph - -   Scattered Clouds
11:55 PM 68.0 °F - 60.8 °F 78% 30.01 in 6.2 mi North 5.8 mph - N/A   Partly Cloudy